Satellite: AO-40 Catalog number: 26609 Epoch time: 01130.37527778 Element set: 72 Inclination: 5.1772 deg RA of node: 195.6030 deg Eccentricity: 0.8142594 Arg of perigee: 265.1498 deg Mean anomaly: 9.4326 deg Mean motion: 1.27001452 rev/day Decay rate: 0.00000e+00 rev/day^2 Epoch rev: 242 Checksum: 258